Location: Csohesd
(46.2500°N, 22.6167°E)
Time: 02:51:35
(UTC+00:00)

Cosmos 1447 Rocket - Pass Details

Date: 21 October 2021
Orbit: 954 x 996 km, 82.9° (Epoch: 30 November)

Event Time Altitude Azimuth Distance (km) Brightness Sun altitude
Rises 17:34:17 0° 351° (N) 3,647 7.7 -21.7°
Reaches altitude 10° 17:36:48 10° 353° (N) 2,695 7.0 -22.1°
Maximum altitude 17:42:58 84° 81° (E) 965 4.3 -23.2°
Drops below altitude 10° 17:49:06 10° 171° (S) 2,678 6.6 -24.3°
Enters shadow 17:49:39 - 171° (S) 2,881 6.8 -24.3°
